| time (UTC) | temp C | wind direction | speed KPH | gust KPH | rain 1hr cm | rain 24hr cm | rain mn cm | humidity % | barometer mb |
| 20260505101002 | 10 | 28 | 11.3 | 20.9 | 0.00 | 1.50 | 1.50 | 79 | 1008.0 |
| 20260505100502 | 10 | 31 | 8.0 | 20.9 | 0.00 | 1.50 | 1.50 | 80 | 1008.2 |
| 20260505100002 | 10 | 24 | 9.7 | 19.3 | 0.00 | 1.50 | 1.50 | 79 | 1008.2 |
| 20260505095502 | 10 | 6 | 12.9 | 20.9 | 0.00 | 1.50 | 1.50 | 79 | 1008.2 |
| 20260505094503 | 10 | 30 | 12.9 | 22.5 | 0.00 | 1.50 | 1.50 | 79 | 1008.1 |
| 20260505094003 | 10 | 18 | 17.7 | 25.7 | 0.00 | 1.50 | 1.50 | 79 | 1007.9 |
| 20260505093503 | 10 | 0 | 14.5 | 25.7 | 0.00 | 1.50 | 1.50 | 79 | 1007.9 |
| 20260505093002 | 10 | 31 | 14.5 | 25.7 | 0.00 | 1.50 | 1.50 | 79 | 1008.2 |
| 20260505092503 | 10 | 30 | 11.3 | 19.3 | 0.00 | 1.50 | 1.50 | 78 | 1008.4 |
| 20260505091503 | 10 | 25 | 11.3 | 22.5 | 0.00 | 1.50 | 1.50 | 78 | 1008.0 |
| 20260505090503 | 10 | 23 | 12.9 | 22.5 | 0.00 | 1.50 | 1.50 | 78 | 1007.9 |
| 20260505085002 | 10 | 0 | 14.5 | 24.1 | 0.00 | 1.50 | 1.50 | 80 | 1007.4 |
| 20260505084003 | 10 | 16 | 17.7 | 27.4 | 0.00 | 1.50 | 1.50 | 78 | 1006.7 |
| 20260505083003 | 10 | 24 | 17.7 | 38.6 | 0.08 | 1.50 | 1.50 | 79 | 1006.8 |
| 20260505082002 | 10 | 3 | 20.9 | 37.0 | 0.23 | 1.50 | 1.50 | 79 | 1006.5 |
| 20260505081502 | 10 | 24 | 22.5 | 30.6 | 0.28 | 1.50 | 1.50 | 80 | 1006.3 |
| 20260505081002 | 10 | 14 | 19.3 | 30.6 | 0.33 | 1.50 | 1.50 | 81 | 1006.4 |
| 20260505080502 | 10 | 3 | 20.9 | 37.0 | 0.36 | 1.50 | 1.50 | 81 | 1006.4 |
| 20260505080003 | 10 | 0 | 29.0 | 37.0 | 0.41 | 1.09 | 1.50 | 82 | 1006.1 |
| 20260505075503 | 10 | 10 | 25.7 | 43.5 | 0.43 | 1.09 | 1.50 | 82 | 1005.6 |
| 20260505075002 | 10 | 6 | 22.5 | 43.5 | 0.46 | 1.09 | 1.50 | 82 | 1005.2 |
| 20260505074502 | 10 | 7 | 24.1 | 49.9 | 0.51 | 1.09 | 1.50 | 83 | 1004.9 |
| 20260505074003 | 10 | 51 | 33.8 | 59.5 | 0.53 | 1.09 | 1.50 | 81 | 1003.6 |
| 20260505073502 | 10 | 38 | 37.0 | 59.5 | 0.56 | 1.09 | 1.47 | 82 | 1002.1 |
| 20260505072502 | 11 | 28 | 25.7 | 37.0 | 0.66 | 1.09 | 1.32 | 83 | 1005.8 |
| 20260505072004 | 11 | 13 | 22.5 | 35.4 | 0.76 | 1.09 | 1.24 | 84 | 1006.8 |
| 20260505071502 | 12 | 11 | 17.7 | 25.7 | 0.81 | 1.09 | 1.19 | 86 | 1007.2 |
| 20260505071003 | 12 | 11 | 14.5 | 22.5 | 0.81 | 1.09 | 1.17 | 87 | 1008.0 |
| 20260505070501 | 12 | 20 | 12.9 | 20.9 | 0.86 | 1.09 | 1.14 | 87 | 1008.5 |
| 20260505070002 | 12 | 337 | 6.4 | 17.7 | 0.99 | 0.10 | 1.09 | 87 | 1009.3 |
| 20260505065502 | 12 | 303 | 6.4 | 11.3 | 1.04 | 0.10 | 1.04 | 86 | 1009.5 |
| 20260505065002 | 12 | 20 | 3.2 | 22.5 | 1.04 | 0.10 | 1.02 | 86 | 1008.1 |
| 20260505064502 | 12 | 353 | 9.7 | 32.2 | 0.99 | 0.10 | 0.99 | 86 | 1007.5 |
| 20260505064002 | 12 | 4 | 16.1 | 32.2 | 0.97 | 0.10 | 0.97 | 86 | 1006.9 |
| 20260505063502 | 12 | 6 | 22.5 | 32.2 | 0.91 | 0.10 | 0.91 | 86 | 1006.3 |
| 20260505063002 | 12 | 13 | 20.9 | 29.0 | 0.81 | 0.10 | 0.71 | 85 | 1006.1 |
| 20260505062504 | 12 | 0 | 19.3 | 35.4 | 0.69 | 0.10 | 0.64 | 84 | 1006.3 |
| 20260505062004 | 13 | 0 | 17.7 | 51.5 | 0.51 | 0.10 | 0.48 | 80 | 1006.1 |
| 20260505061503 | 13 | 16 | 29.0 | 51.5 | 0.41 | 0.10 | 0.41 | 78 | 1005.5 |
| 20260505061003 | 13 | 21 | 32.2 | 45.1 | 0.36 | 0.10 | 0.36 | 81 | 1005.5 |
| 20260505060503 | 14 | 348 | 24.1 | 41.8 | 0.28 | 0.10 | 0.20 | 78 | 1005.7 |
| 20260505060002 | 16 | 344 | 19.3 | 45.1 | 0.10 | 0.00 | 0.10 | 72 | 1005.4 |
| 20260505055503 | 17 | 355 | 27.4 | 46.7 | 0.03 | 0.00 | 0.00 | 61 | 1004.8 |
| 20260505055002 | 18 | 0 | 32.2 | 49.9 | 0.00 | 0.00 | 0.00 | 52 | 1004.4 |
| 20260505054504 | 19 | 0 | 37.0 | 49.9 | 0.00 | 0.00 | 0.00 | 53 | 1003.8 |
| 20260505054004 | 20 | 10 | 33.8 | 43.5 | 0.00 | 0.00 | 0.00 | 55 | 1003.5 |
| 20260505053502 | 20 | 13 | 16.1 | 30.6 | 0.00 | 0.00 | 0.00 | 67 | 1003.7 |
| 20260505053002 | 20 | 23 | 9.7 | 16.1 | 0.00 | 0.00 | 0.00 | 76 | 1003.7 |
| 20260505052502 | 19 | 351 | 8.0 | 16.1 | 0.00 | 0.00 | 0.00 | 80 | 1003.6 |
| 20260505052003 | 19 | 327 | 6.4 | 17.7 | 0.00 | 0.00 | 0.00 | 81 | 1003.5 |
| 20260505051502 | 18 | 329 | 9.7 | 17.7 | 0.00 | 0.00 | 0.00 | 82 | 1003.5 |
| 20260505050503 | 18 | 193 | 0.0 | 0.0 | 0.00 | 0.00 | 0.00 | 82 | 1002.8 |
| 20260505041502 | 19 | 193 | 4.8 | 11.3 | 0.00 | 0.00 | 0.00 | 81 | 1002.8 |
| 20260505041003 | 19 | 148 | 4.8 | 11.3 | 0.00 | 0.00 | 0.00 | 81 | 1002.8 |
| 20260505040003 | 19 | 138 | 3.2 | 9.7 | 0.00 | 0.00 | 0.00 | 81 | 1003.0 |
| 20260505035004 | 19 | 171 | 4.8 | 14.5 | 0.00 | 0.00 | 0.00 | 81 | 1003.2 |
| 20260505034459 | 19 | 183 | 4.8 | 14.5 | 0.00 | 0.00 | 0.00 | 81 | 1003.2 |
| 20260505034000 | 19 | 179 | 4.8 | 8.0 | 0.00 | 0.00 | 0.00 | 81 | 1003.1 |
| 20260505032453 | 19 | 172 | 4.8 | 8.0 | 0.00 | 0.00 | 0.00 | 80 | 1003.1 |
| 20260505031953 | 18 | 186 | 4.8 | 8.0 | 0.00 | 0.00 | 0.00 | 81 | 1003.1 |
| 20260505031454 | 19 | 159 | 4.8 | 8.0 | 0.00 | 0.00 | 0.00 | 80 | 1003.0 |
| 20260505030951 | 19 | 175 | 4.8 | 9.7 | 0.00 | 0.00 | 0.00 | 80 | 1002.9 |
| 20260505025951 | 19 | 193 | 4.8 | 8.0 | 0.00 | 0.00 | 0.00 | 77 | 1002.9 |
| 20260505025448 | 19 | 221 | 0.0 | 4.8 | 0.00 | 0.00 | 0.00 | 77 | 1002.8 |
| 20260505024451 | 20 | 221 | 0.0 | 3.2 | 0.00 | 0.00 | 0.00 | 75 | 1002.6 |
| 20260505023441 | 20 | 221 | 1.6 | 4.8 | 0.00 | 0.00 | 0.00 | 72 | 1002.5 |
| 20260505022942 | 20 | 221 | 1.6 | 3.2 | 0.00 | 0.00 | 0.00 | 72 | 1002.4 |
| 20260505022442 | 20 | 221 | 1.6 | 3.2 | 0.00 | 0.00 | 0.00 | 71 | 1002.3 |
| 20260505021941 | 21 | 221 | 1.6 | 3.2 | 0.00 | 0.00 | 0.00 | 70 | 1002.4 |
| 20260505021440 | 21 | 221 | 0.0 | 3.2 | 0.00 | 0.00 | 0.00 | 69 | 1002.3 |
| 20260505020940 | 21 | 221 | 1.6 | 3.2 | 0.00 | 0.00 | 0.00 | 68 | 1002.2 |
| 20260505020437 | 22 | 221 | 1.6 | 4.8 | 0.00 | 0.00 | 0.00 | 68 | 1002.2 |
| 20260505015938 | 22 | 221 | 1.6 | 4.8 | 0.00 | 0.00 | 0.00 | 67 | 1002.1 |
| 20260505015439 | 22 | 221 | 1.6 | 8.0 | 0.00 | 0.00 | 0.00 | 66 | 1002.1 |
| 20260505014937 | 22 | 221 | 1.6 | 8.0 | 0.00 | 0.00 | 0.00 | 66 | 1002.0 |
| 20260505013934 | 23 | 190 | 4.8 | 9.7 | 0.00 | 0.00 | 0.00 | 64 | 1001.9 |
| 20260505012934 | 23 | 231 | 3.2 | 4.8 | 0.00 | 0.00 | 0.00 | 63 | 1001.8 |
| 20260505012432 | 24 | 231 | 1.6 | 8.0 | 0.00 | 0.00 | 0.00 | 63 | 1001.7 |
| 20260505011932 | 24 | 241 | 3.2 | 8.0 | 0.00 | 0.00 | 0.00 | 62 | 1001.5 |
| 20260505011432 | 24 | 227 | 1.6 | 4.8 | 0.00 | 0.00 | 0.00 | 61 | 1001.5 |
| 20260505010431 | 25 | 223 | 1.6 | 9.7 | 0.00 | 0.00 | 0.00 | 59 | 1001.3 |
| 20260505005931 | 25 | 228 | 3.2 | 9.7 | 0.00 | 0.00 | 0.00 | 57 | 1001.3 |
| 20260505005431 | 25 | 192 | 3.2 | 8.0 | 0.00 | 0.00 | 0.00 | 58 | 1001.3 |
| 20260505003931 | 25 | 214 | 6.4 | 14.5 | 0.00 | 0.00 | 0.00 | 55 | 1001.2 |
| 20260505003432 | 26 | 231 | 6.4 | 20.9 | 0.00 | 0.00 | 0.00 | 55 | 1001.2 |
| 20260505002431 | 26 | 209 | 9.7 | 25.7 | 0.00 | 0.00 | 0.00 | 54 | 1001.1 |
| 20260505001931 | 26 | 223 | 11.3 | 27.4 | 0.00 | 0.00 | 0.00 | 54 | 1000.9 |
| 20260505001431 | 26 | 206 | 12.9 | 27.4 | 0.00 | 0.00 | 0.00 | 55 | 1000.9 |
| 20260505000932 | 26 | 190 | 6.4 | 11.3 | 0.00 | 0.00 | 0.00 | 54 | 1001.0 |
| 20260504235930 | 26 | 219 | 6.4 | 14.5 | 0.00 | 0.00 | 0.00 | 53 | 1001.0 |
| 20260504234930 | 27 | 197 | 6.4 | 14.5 | 0.00 | 0.00 | 0.00 | 53 | 1001.1 |
| 20260504234429 | 27 | 202 | 3.2 | 9.7 | 0.00 | 0.00 | 0.00 | 54 | 1001.1 |
| 20260504233929 | 27 | 214 | 3.2 | 9.7 | 0.00 | 0.00 | 0.00 | 51 | 1001.1 |
| 20260504233428 | 27 | 196 | 6.4 | 17.7 | 0.00 | 0.00 | 0.00 | 50 | 1001.1 |
| 20260504232925 | 27 | 244 | 6.4 | 17.7 | 0.00 | 0.00 | 0.00 | 50 | 1001.1 |
| 20260504232426 | 27 | 252 | 6.4 | 16.1 | 0.00 | 0.00 | 0.00 | 50 | 1001.0 |
| 20260504231926 | 27 | 217 | 8.0 | 16.1 | 0.00 | 0.00 | 0.00 | 49 | 1001.1 |
| 20260504231426 | 28 | 199 | 8.0 | 14.5 | 0.00 | 0.00 | 0.00 | 48 | 1001.0 |
| 20260504230425 | 28 | 196 | 6.4 | 14.5 | 0.00 | 0.00 | 0.00 | 50 | 1001.1 |
| 20260504225922 | 28 | 175 | 6.4 | 11.3 | 0.00 | 0.00 | 0.00 | 50 | 1001.0 |
| 20260504225422 | 28 | 223 | 4.8 | 11.3 | 0.00 | 0.00 | 0.00 | 52 | 1001.0 |
| 20260504224922 | 28 | 206 | 4.8 | 11.3 | 0.00 | 0.00 | 0.00 | 48 | 1001.1 |
| 20260504224420 | 27 | 233 | 3.2 | 11.3 | 0.00 | 0.00 | 0.00 | 50 | 1001.1 |
| 20260504223920 | 27 | 269 | 4.8 | 14.5 | 0.00 | 0.00 | 0.00 | 49 | 1001.2 |
| 20260504222920 | 27 | 241 | 4.8 | 11.3 | 0.00 | 0.00 | 0.00 | 48 | 1001.0 |
| 20260504222413 | 27 | 186 | 6.4 | 14.5 | 0.00 | 0.00 | 0.00 | 47 | 1001.1 |
| 20260504221913 | 27 | 207 | 4.8 | 14.5 | 0.00 | 0.00 | 0.00 | 49 | 1001.1 |
| 20260504221411 | 27 | 199 | 6.4 | 16.1 | 0.00 | 0.00 | 0.00 | 46 | 1001.1 |
| 20260504220912 | 27 | 197 | 8.0 | 16.1 | 0.00 | 0.00 | 0.00 | 47 | 1001.2 |
| 20260504220411 | 27 | 258 | 4.8 | 16.1 | 0.00 | 0.00 | 0.00 | 52 | 1001.2 |
| 20260504215409 | 27 | 266 | 4.8 | 11.3 | 0.00 | 0.00 | 0.00 | 50 | 1001.2 |
| 20260504213908 | 27 | 234 | 8.0 | 14.5 | 0.00 | 0.00 | 0.00 | 46 | 1001.4 |
| 20260504213408 | 27 | 209 | 6.4 | 16.1 | 0.00 | 0.00 | 0.00 | 48 | 1001.4 |
| 20260504212905 | 27 | 219 | 9.7 | 22.5 | 0.00 | 0.00 | 0.00 | 46 | 1001.5 |
| 20260504212405 | 27 | 248 | 12.9 | 22.5 | 0.00 | 0.00 | 0.00 | 45 | 1001.6 |
| 20260504211903 | 27 | 309 | 9.7 | 16.1 | 0.00 | 0.00 | 0.00 | 46 | 1001.6 |
| 20260504210903 | 27 | 186 | 8.0 | 20.9 | 0.00 | 0.00 | 0.00 | 47 | 1001.7 |
| 20260504210402 | 27 | 228 | 11.3 | 20.9 | 0.00 | 0.00 | 0.00 | 46 | 1001.7 |
| 20260504205901 | 27 | 234 | 14.5 | 20.9 | 0.00 | 0.00 | 0.00 | 44 | 1001.7 |
| 20260504205402 | 27 | 228 | 8.0 | 20.9 | 0.00 | 0.00 | 0.00 | 46 | 1001.6 |
| 20260504204902 | 28 | 220 | 9.7 | 20.9 | 0.00 | 0.00 | 0.00 | 47 | 1001.9 |
| 20260504204401 | 28 | 234 | 9.7 | 24.1 | 0.00 | 0.00 | 0.00 | 48 | 1001.9 |
| 20260504203901 | 27 | 227 | 14.5 | 24.1 | 0.00 | 0.00 | 0.00 | 47 | 1001.9 |
| 20260504203401 | 27 | 212 | 11.3 | 24.1 | 0.00 | 0.00 | 0.00 | 47 | 1002.0 |
| 20260504202901 | 27 | 244 | 11.3 | 20.9 | 0.00 | 0.00 | 0.00 | 45 | 1001.9 |
| 20260504202401 | 27 | 220 | 11.3 | 20.9 | 0.00 | 0.00 | 0.00 | 46 | 1002.1 |
| 20260504201901 | 27 | 199 | 12.9 | 22.5 | 0.00 | 0.00 | 0.00 | 45 | 1002.2 |
| 20260504201400 | 27 | 214 | 9.7 | 25.7 | 0.00 | 0.00 | 0.00 | 47 | 1002.3 |
| 20260504200900 | 27 | 230 | 11.3 | 25.7 | 0.00 | 0.00 | 0.00 | 47 | 1002.2 |
| 20260504195401 | 27 | 247 | 16.1 | 24.1 | 0.00 | 0.00 | 0.00 | 46 | 1002.2 |
| 20260504194900 | 28 | 172 | 11.3 | 24.1 | 0.00 | 0.00 | 0.00 | 46 | 1002.2 |
| 20260504193900 | 28 | 240 | 9.7 | 19.3 | 0.00 | 0.00 | 0.00 | 46 | 1002.1 |
| 20260504193359 | 28 | 241 | 6.4 | 22.5 | 0.00 | 0.00 | 0.00 | 45 | 1002.0 |
| 20260504192900 | 28 | 227 | 9.7 | 22.5 | 0.00 | 0.00 | 0.00 | 48 | 1002.1 |
| 20260504192359 | 28 | 266 | 9.7 | 27.4 | 0.00 | 0.00 | 0.00 | 45 | 1002.1 |
| 20260504191859 | 28 | 217 | 16.1 | 27.4 | 0.00 | 0.00 | 0.00 | 44 | 1002.1 |
| 20260504191359 | 28 | 252 | 11.3 | 29.0 | 0.00 | 0.00 | 0.00 | 45 | 1002.1 |
| 20260504190900 | 28 | 151 | 16.1 | 29.0 | 0.00 | 0.00 | 0.00 | 45 | 1002.3 |
| 20260504190359 | 28 | 224 | 9.7 | 27.4 | 0.00 | 0.00 | 0.00 | 49 | 1002.3 |
| 20260504185859 | 28 | 176 | 11.3 | 22.5 | 0.00 | 0.00 | 0.00 | 45 | 1002.4 |
| 20260504184858 | 28 | 183 | 12.9 | 24.1 | 0.00 | 0.00 | 0.00 | 46 | 1002.3 |
| 20260504183858 | 27 | 227 | 11.3 | 25.7 | 0.00 | 0.00 | 0.00 | 49 | 1002.5 |
| 20260504183358 | 27 | 213 | 8.0 | 24.1 | 0.00 | 0.00 | 0.00 | 46 | 1002.4 |
| 20260504182859 | 27 | 199 | 8.0 | 24.1 | 0.00 | 0.00 | 0.00 | 50 | 1002.5 |
| 20260504182359 | 27 | 235 | 6.4 | 19.3 | 0.00 | 0.00 | 0.00 | 54 | 1002.6 |
| 20260504181858 | 27 | 137 | 9.7 | 27.4 | 0.00 | 0.00 | 0.00 | 50 | 1002.6 |
| 20260504180856 | 26 | 238 | 9.7 | 22.5 | 0.00 | 0.00 | 0.00 | 50 | 1002.6 |
| 20260504180358 | 26 | 230 | 11.3 | 22.5 | 0.00 | 0.00 | 0.00 | 49 | 1002.7 |
| 20260504175858 | 26 | 258 | 12.9 | 22.5 | 0.00 | 0.00 | 0.00 | 48 | 1002.6 |
| 20260504175358 | 26 | 195 | 12.9 | 27.4 | 0.00 | 0.00 | 0.00 | 52 | 1002.7 |
| 20260504174858 | 26 | 197 | 16.1 | 27.4 | 0.00 | 0.00 | 0.00 | 52 | 1002.8 |
| 20260504174357 | 26 | 274 | 12.9 | 24.1 | 0.00 | 0.00 | 0.00 | 51 | 1002.9 |
| 20260504173857 | 25 | 254 | 12.9 | 24.1 | 0.00 | 0.00 | 0.00 | 56 | 1002.8 |
| 20260504173357 | 25 | 237 | 8.0 | 25.7 | 0.00 | 0.00 | 0.00 | 55 | 1002.8 |
| 20260504172856 | 25 | 207 | 14.5 | 25.7 | 0.00 | 0.00 | 0.00 | 54 | 1003.2 |
| 20260504171857 | 24 | 221 | 8.0 | 27.4 | 0.00 | 0.00 | 0.00 | 54 | 1003.0 |
| 20260504170856 | 24 | 178 | 9.7 | 24.1 | 0.00 | 0.00 | 0.00 | 53 | 1003.0 |
| 20260504170356 | 24 | 199 | 9.7 | 22.5 | 0.00 | 0.00 | 0.00 | 52 | 1003.0 |
| 20260504160355 | 23 | 219 | 12.9 | 25.7 | 0.00 | 0.00 | 0.00 | 54 | 1003.3 |
| 20260504150854 | 21 | 219 | 11.3 | 33.8 | 0.00 | 0.00 | 0.00 | 58 | 1003.5 |
| 20260504140852 | 19 | 209 | 14.5 | 32.2 | 0.00 | 0.00 | 0.00 | 60 | 1003.7 |
| 20260504140352 | 19 | 164 | 12.9 | 32.2 | 0.00 | 0.00 | 0.00 | 59 | 1003.3 |
| 20260504130352 | 18 | 220 | 16.1 | 29.0 | 0.00 | 0.00 | 0.00 | 61 | 1003.2 |
| 20260504110348 | 17 | 231 | 12.9 | 19.3 | 0.00 | 0.00 | 0.00 | 57 | 1003.5 |